�������l�o���
Date,Time,MP-1(��Sv/h),MP-2(��Sv/h),MP-3(��Sv/h),MP-4(��Sv/h),MP-5(��Sv/h),MP-6(��Sv/h),MP-7(��Sv/h),MP-8(��Sv/h),����,����(m/s),���J
2021/06/17,00:00,0.641,0.954,0.601,1.163,0.836,0.375,0.656,0.611,�k�k��,4.7,�L
2021/06/17,00:10,0.641,0.953,0.599,1.165,0.836,0.376,0.654,0.611,�k�k��,4.8,�L
2021/06/17,00:20,0.642,0.954,0.600,1.168,0.834,0.376,0.654,0.609,�k,4.7,�L
2021/06/17,00:30,0.640,0.954,0.600,1.164,0.834,0.376,0.655,0.609,�k�k��,5.3,�L
2021/06/17,00:40,0.642,0.953,0.601,1.168,0.834,0.375,0.656,0.609,�k�k��,5.3,��
2021/06/17,00:50,0.641,0.955,0.600,1.164,0.834,0.376,0.656,0.612,�k�k��,4.8,��
2021/06/17,01:00,0.644,0.955,0.601,1.164,0.836,0.376,0.654,0.610,�k�k��,4.4,�L
2021/06/17,01:10,0.642,0.953,0.600,1.166,0.832,0.375,0.655,0.610,�k�k��,4.2,�L
2021/06/17,01:20,0.642,0.952,0.601,1.163,0.831,0.375,0.655,0.610,�k�k��,4.3,��
2021/06/17,01:30,0.643,0.953,0.601,1.165,0.832,0.376,0.656,0.610,�k,4.6,��
2021/06/17,01:40,0.641,0.953,0.600,1.164,0.831,0.376,0.655,0.610,�k�k��,3.7,��
2021/06/17,01:50,0.643,0.953,0.599,1.165,0.831,0.376,0.656,0.610,�k,3.3,��
2021/06/17,02:00,0.642,0.951,0.599,1.163,0.830,0.376,0.654,0.610,�k,3.5,��
2021/06/17,02:10,0.642,0.954,0.599,1.164,0.830,0.375,0.656,0.608,�k�k��,3.3,��
2021/06/17,02:20,0.641,0.955,0.598,1.165,0.832,0.375,0.655,0.610,�k�k��,2.6,��
2021/06/17,02:30,0.642,0.954,0.600,1.164,0.830,0.378,0.655,0.611,�k,2.3,��
2021/06/17,02:40,0.643,0.956,0.598,1.163,0.833,0.374,0.656,0.609,�k�k��,2.3,��
2021/06/17,02:50,0.644,0.953,0.599,1.164,0.832,0.376,0.655,0.609,�k��,3.2,��
2021/06/17,03:00,0.644,0.955,0.600,1.164,0.834,0.375,0.655,0.611,���k��,3.3,��
2021/06/17,03:10,0.642,0.956,0.599,1.162,0.832,0.374,0.655,0.611,���k��,3.8,��
2021/06/17,03:20,0.643,0.954,0.598,1.163,0.834,0.376,0.655,0.612,�k�k��,3.6,��
2021/06/17,03:30,0.643,0.954,0.600,1.163,0.834,0.375,0.655,0.612,�k��,3.1,��
2021/06/17,03:40,0.642,0.955,0.601,1.164,0.834,0.376,0.652,0.611,�k�k��,2.9,��
2021/06/17,03:50,0.641,0.954,0.599,1.162,0.834,0.375,0.655,0.612,�k�k��,3.5,��
2021/06/17,04:00,0.641,0.953,0.600,1.163,0.833,0.375,0.655,0.612,�k��,3.1,��
2021/06/17,04:10,0.643,0.954,0.600,1.162,0.833,0.375,0.655,0.613,�k�k��,3.3,��
2021/06/17,04:20,0.640,0.953,0.600,1.164,0.835,0.375,0.654,0.611,�k��,3.7,��
2021/06/17,04:30,0.640,0.956,0.601,1.162,0.833,0.373,0.655,0.612,�k��,4.4,��
2021/06/17,04:40,0.642,0.955,0.599,1.164,0.834,0.374,0.656,0.612,�k��,3.2,��
2021/06/17,04:50,0.640,0.953,0.599,1.164,0.832,0.375,0.656,0.613,�k��,4.3,��
2021/06/17,05:00,0.643,0.954,0.600,1.163,0.832,0.375,0.654,0.611,�k��,4.3,��
2021/06/17,05:10,0.641,0.955,0.599,1.162,0.832,0.374,0.653,0.610,�k��,4.0,��
2021/06/17,05:20,0.640,0.954,0.601,1.163,0.835,0.376,0.654,0.611,�k��,4.9,��
2021/06/17,05:30,0.642,0.954,0.599,1.164,0.833,0.375,0.655,0.612,�k��,5.5,��
2021/06/17,05:40,0.641,0.954,0.601,1.163,0.833,0.374,0.655,0.612,�k��,5.9,��
2021/06/17,05:50,0.640,0.951,0.600,1.162,0.833,0.375,0.653,0.611,�k��,5.6,��
2021/06/17,06:00,0.642,0.952,0.601,1.164,0.831,0.375,0.654,0.612,�k��,5.7,��
2021/06/17,06:10,0.642,0.952,0.600,1.163,0.833,0.374,0.656,0.611,�k��,3.9,��
2021/06/17,06:20,0.642,0.953,0.600,1.163,0.833,0.375,0.655,0.612,�k��,4.8,��
2021/06/17,06:30,0.642,0.951,0.601,1.165,0.833,0.375,0.655,0.611,�k��,4.9,��
2021/06/17,06:40,0.643,0.952,0.600,1.163,0.835,0.374,0.656,0.611,�k�k��,5.2,�L
2021/06/17,06:50,0.641,0.952,0.599,1.163,0.831,0.374,0.654,0.611,�k�k��,5.0,��
2021/06/17,07:00,0.642,0.952,0.600,1.161,0.832,0.376,0.656,0.612,�k�k��,5.3,��
2021/06/17,07:10,0.641,0.953,0.600,1.162,0.831,0.373,0.654,0.610,�k�k��,4.9,��
2021/06/17,07:20,0.641,0.951,0.600,1.162,0.831,0.375,0.655,0.611,�k�k��,5.2,��
2021/06/17,07:30,0.641,0.951,0.598,1.161,0.832,0.374,0.654,0.610,�k�k��,5.4,��
2021/06/17,07:40,0.641,0.950,0.599,1.164,0.832,0.374,0.655,0.611,�k�k��,6.0,��
2021/06/17,07:50,0.643,0.952,0.601,1.164,0.833,0.374,0.654,0.611,�k�k��,6.3,��
2021/06/17,08:00,0.640,0.950,0.600,1.163,0.833,0.373,0.654,0.609,�k�k��,5.8,��
2021/06/17,08:10,0.642,0.952,0.598,1.163,0.833,0.374,0.655,0.610,�k�k��,6.1,��
2021/06/17,08:20,0.642,0.949,0.601,1.163,0.833,0.375,0.656,0.610,�k�k��,6.9,��
2021/06/17,08:30,0.641,0.950,0.599,1.164,0.830,0.375,0.655,0.609,�k�k��,6.7,��
2021/06/17,08:40,0.644,0.949,0.598,1.164,0.831,0.375,0.656,0.609,�k�k��,6.6,��
2021/06/17,08:50,0.643,0.951,0.599,1.165,0.832,0.374,0.655,0.609,�k�k��,6.8,��
2021/06/17,09:00,0.642,0.950,0.598,1.163,0.833,0.376,0.655,0.609,�k�k��,6.2,��
2021/06/17,09:10,0.643,0.948,0.599,1.163,0.833,0.375,0.657,0.611,�k�k��,6.3,��
2021/06/17,09:20,0.645,0.950,0.597,1.164,0.834,0.374,0.656,0.610,�k�k��,6.6,��
2021/06/17,09:30,0.643,0.949,0.600,1.162,0.835,0.375,0.655,0.610,�k�k��,6.9,��
2021/06/17,09:40,0.643,0.952,0.597,1.162,0.835,0.375,0.656,0.611,�k�k��,7.3,��
2021/06/17,09:50,0.645,0.949,0.597,1.163,0.833,0.374,0.656,0.611,�k�k��,6.9,��
2021/06/17,10:00,0.646,0.950,0.596,1.163,0.833,0.376,0.657,0.609,�k�k��,6.2,��
2021/06/17,10:10,0.645,0.950,0.597,1.163,0.836,0.374,0.655,0.609,�k�k��,7.0,��
2021/06/17,10:20,0.644,0.950,0.598,1.163,0.836,0.375,0.656,0.610,�k�k��,7.2,��
2021/06/17,10:30,0.644,0.948,0.599,1.162,0.837,0.375,0.657,0.610,�k�k��,7.4,��
2021/06/17,10:40,0.645,0.953,0.598,1.164,0.835,0.375,0.655,0.609,�k�k��,7.3,��
2021/06/17,10:50,0.643,0.948,0.597,1.163,0.836,0.375,0.657,0.610,�k�k��,7.9,��
2021/06/17,11:00,0.644,0.948,0.600,1.163,0.836,0.377,0.656,0.610,�k�k��,7.6,��
2021/06/17,11:10,0.646,0.953,0.600,1.163,0.837,0.374,0.656,0.610,�k�k��,8.1,��
2021/06/17,11:20,0.642,0.951,0.600,1.164,0.834,0.375,0.656,0.609,�k�k��,8.3,��
2021/06/17,11:30,0.644,0.951,0.600,1.164,0.837,0.375,0.655,0.611,�k�k��,7.8,��
2021/06/17,11:40,0.643,0.953,0.599,1.167,0.834,0.376,0.655,0.611,�k�k��,8.0,��
2021/06/17,11:50,0.647,0.952,0.600,1.165,0.838,0.376,0.656,0.610,�k�k��,8.7,��
2021/06/17,12:00,0.646,0.954,0.597,1.165,0.837,0.376,0.656,0.609,�k�k��,8.6,��
2021/06/17,12:10,0.646,0.954,0.598,1.163,0.837,0.376,0.655,0.610,�k�k��,8.5,��
2021/06/17,12:20,0.644,0.954,0.598,1.165,0.836,0.377,0.656,0.610,�k�k��,8.2,��
2021/06/17,12:30,0.645,0.954,0.597,1.164,0.838,0.376,0.657,0.610,�k�k��,7.8,��
2021/06/17,12:40,0.645,0.956,0.599,1.167,0.837,0.375,0.657,0.611,�k�k��,7.4,��
2021/06/17,12:50,0.645,0.954,0.599,1.166,0.838,0.375,0.656,0.610,�k�k��,7.8,��
2021/06/17,13:00,0.646,0.954,0.598,1.164,0.837,0.374,0.656,0.610,�k�k��,7.8,��
2021/06/17,13:10,0.646,0.954,0.599,1.165,0.837,0.376,0.655,0.609,�k�k��,7.2,��
2021/06/17,13:20,0.646,0.954,0.600,1.166,0.839,0.377,0.657,0.610,�k�k��,6.9,��
2021/06/17,13:30,0.645,0.954,0.600,1.166,0.838,0.376,0.656,0.611,�k�k��,6.1,��
2021/06/17,13:40,0.645,0.952,0.600,1.165,0.838,0.376,0.655,0.610,�k�k��,6.6,��
2021/06/17,13:50,0.646,0.953,0.599,1.164,0.838,0.376,0.655,0.608,�k�k��,6.6,��
2021/06/17,14:00,0.645,0.953,0.600,1.165,0.838,0.375,0.656,0.609,�k�k��,6.6,��
2021/06/17,14:10,0.645,0.952,0.598,1.165,0.838,0.375,0.656,0.609,�k�k��,6.6,��
2021/06/17,14:20,0.646,0.953,0.600,1.164,0.839,0.375,0.657,0.609,�k�k��,6.5,��
2021/06/17,14:30,0.645,0.954,0.600,1.167,0.838,0.375,0.655,0.611,�k�k��,6.3,��
2021/06/17,14:40,0.648,0.954,0.601,1.166,0.839,0.374,0.655,0.611,�k�k��,6.5,��
2021/06/17,14:50,0.650,0.956,0.600,1.165,0.839,0.376,0.656,0.610,�k�k��,7.1,��
2021/06/17,15:00,0.647,0.956,0.601,1.164,0.837,0.375,0.657,0.610,�k�k��,6.6,��
2021/06/17,15:10,0.645,0.956,0.600,1.163,0.838,0.374,0.656,0.610,�k�k��,6.5,��
2021/06/17,15:20,0.645,0.955,0.600,1.167,0.837,0.375,0.656,0.609,�k�k��,6.6,��
2021/06/17,15:30,0.645,0.955,0.600,1.168,0.836,0.375,0.656,0.610,�k�k��,6.3,��
2021/06/17,15:40,0.644,0.953,0.600,1.167,0.838,0.375,0.653,0.611,�k�k��,6.5,��
2021/06/17,15:50,0.644,0.954,0.600,1.165,0.839,0.376,0.656,0.609,�k�k��,6.5,��
2021/06/17,16:00,0.645,0.954,0.600,1.166,0.839,0.375,0.655,0.611,�k�k��,6.5,��
2021/06/17,16:10,0.643,0.954,0.601,1.167,0.837,0.375,0.658,0.610,�k�k��,6.3,��
2021/06/17,16:20,0.644,0.955,0.600,1.165,0.838,0.375,0.656,0.610,�k�k��,6.0,��
2021/06/17,16:30,0.644,0.954,0.600,1.168,0.837,0.376,0.655,0.610,�k�k��,6.0,��
2021/06/17,16:40,0.644,0.954,0.600,1.169,0.838,0.375,0.656,0.611,�k�k��,6.0,��
2021/06/17,16:50,0.645,0.956,0.601,1.167,0.839,0.375,0.656,0.610,�k�k��,6.1,��
2021/06/17,17:00,0.646,0.956,0.599,1.166,0.839,0.375,0.654,0.610,�k�k��,6.4,��
2021/06/17,17:10,0.643,0.955,0.599,1.168,0.838,0.374,0.656,0.610,�k�k��,6.0,��
2021/06/17,17:20,0.646,0.958,0.599,1.168,0.836,0.374,0.657,0.610,�k�k��,5.6,��
2021/06/17,17:30,0.643,0.957,0.601,1.169,0.837,0.375,0.655,0.611,�k�k��,6.0,��
2021/06/17,17:40,0.644,0.958,0.600,1.172,0.840,0.375,0.655,0.611,�k�k��,5.4,��
2021/06/17,17:50,0.641,0.954,0.600,1.172,0.837,0.375,0.656,0.609,�k�k��,5.5,��
2021/06/17,18:00,0.645,0.957,0.602,1.171,0.837,0.372,0.653,0.611,�k�k��,5.4,��
2021/06/17,18:10,0.643,0.958,0.601,1.170,0.839,0.375,0.655,0.612,�k�k��,4.9,��
2021/06/17,18:20,0.644,0.960,0.601,1.171,0.838,0.376,0.655,0.612,�k�k��,4.6,��
2021/06/17,18:30,0.644,0.957,0.602,1.170,0.838,0.375,0.655,0.611,�k�k��,4.4,��
2021/06/17,18:40,0.642,0.960,0.602,1.171,0.840,0.376,0.655,0.612,�k�k��,4.8,��
2021/06/17,18:50,0.642,0.958,0.600,1.172,0.839,0.375,0.655,0.612,�k�k��,4.5,��
2021/06/17,19:00,0.641,0.959,0.602,1.169,0.842,0.375,0.656,0.612,�k�k��,4.4,��
2021/06/17,19:10,0.641,0.960,0.602,1.171,0.839,0.376,0.656,0.613,�k�k��,4.9,��
2021/06/17,19:20,0.642,0.958,0.602,1.170,0.839,0.377,0.657,0.611,�k,3.7,��
2021/06/17,19:30,0.644,0.960,0.604,1.170,0.838,0.375,0.659,0.614,�k,4.1,��
2021/06/17,19:40,0.642,0.958,0.601,1.171,0.840,0.376,0.656,0.613,�k,4.2,��
2021/06/17,19:50,0.645,0.960,0.603,1.170,0.839,0.377,0.657,0.613,�k,3.3,��
2021/06/17,20:00,0.645,0.959,0.602,1.171,0.840,0.375,0.658,0.613,�k�k��,3.3,��
2021/06/17,20:10,0.644,0.960,0.602,1.168,0.840,0.377,0.657,0.613,�k�k��,3.9,��
2021/06/17,20:20,0.642,0.959,0.603,1.169,0.840,0.378,0.658,0.614,�k�k��,4.2,��
2021/06/17,20:30,0.643,0.958,0.602,1.169,0.841,0.376,0.659,0.613,�k�k��,4.9,��
2021/06/17,20:40,0.643,0.957,0.602,1.171,0.840,0.377,0.657,0.611,�k,4.5,��
2021/06/17,20:50,0.645,0.958,0.604,1.169,0.841,0.377,0.657,0.613,�k,4.3,��
2021/06/17,21:00,0.644,0.957,0.604,1.169,0.840,0.377,0.657,0.613,�k,4.8,��
2021/06/17,21:10,0.643,0.958,0.602,1.169,0.840,0.377,0.659,0.612,�k,5.0,��
2021/06/17,21:20,0.644,0.957,0.601,1.170,0.839,0.376,0.658,0.613,�k,4.3,��
2021/06/17,21:30,0.644,0.955,0.602,1.173,0.840,0.377,0.659,0.614,�k,4.9,��
2021/06/17,21:40,0.644,0.956,0.603,1.169,0.838,0.377,0.657,0.612,�k,4.8,��
2021/06/17,21:50,0.643,0.957,0.603,1.171,0.840,0.377,0.657,0.612,�k,4.3,��
2021/06/17,22:00,0.644,0.957,0.603,1.168,0.841,0.377,0.656,0.612,�k,3.4,��
2021/06/17,22:10,0.645,0.958,0.603,1.170,0.840,0.377,0.657,0.614,�k,3.3,��
2021/06/17,22:20,0.641,0.959,0.603,1.170,0.840,0.376,0.656,0.611,�k�k��,2.3,��
2021/06/17,22:30,0.644,0.958,0.603,1.170,0.839,0.376,0.656,0.613,�k�k��,3.4,��
2021/06/17,22:40,0.643,0.958,0.603,1.172,0.839,0.377,0.659,0.613,�k,3.6,��
2021/06/17,22:50,0.643,0.957,0.602,1.169,0.842,0.377,0.657,0.614,�k�k��,4.1,��
2021/06/17,23:00,0.643,0.957,0.602,1.168,0.840,0.375,0.656,0.613,�k�k��,3.9,��
2021/06/17,23:10,0.643,0.960,0.602,1.171,0.840,0.376,0.657,0.613,�k,3.9,��
2021/06/17,23:20,0.645,0.958,0.602,1.169,0.841,0.377,0.657,0.612,�k,3.6,��
2021/06/17,23:30,0.643,0.959,0.602,1.169,0.839,0.377,0.657,0.613,�k,3.1,��
2021/06/17,23:40,0.644,0.956,0.602,1.170,0.840,0.377,0.656,0.613,�k,2.6,��
2021/06/17,23:50,0.643,0.958,0.601,1.170,0.838,0.377,0.655,0.613,�k,2.6,��
